Time,TemperatureF,DewpointF,PressureIn,WindDirection,WindDirectionDegrees,WindSpeedMPH,WindSpeedGustMPH,Humidity,HourlyPrecipIn,Conditions,Clouds,dailyrainin,SoftwareType,DateUTC
2013-01-14 00:02:00,32.0,28.0,30.46,ESE,119,14.0,21.0,84,0.00,,,0.00,,2013-01-14 08:02:00,
2013-01-14 00:11:00,32.0,28.0,30.46,ESE,119,14.0,21.0,84,0.00,,,0.00,,2013-01-14 08:11:00,
2013-01-14 00:22:00,31.0,27.0,30.47,SE,126,13.0,21.0,84,0.00,,,0.00,,2013-01-14 08:22:00,
2013-01-14 00:32:00,31.0,26.0,30.47,ESE,119,18.0,24.0,83,0.00,,,0.00,,2013-01-14 08:32:00,
2013-01-14 00:42:00,31.0,26.0,30.47,ESE,119,18.0,24.0,83,0.00,,,0.00,,2013-01-14 08:42:00,
2013-01-14 00:52:00,31.0,27.0,30.47,ESE,107,17.0,26.0,84,0.00,,,0.00,,2013-01-14 08:52:00,
2013-01-14 01:02:00,31.0,26.0,30.47,ESE,114,19.0,27.0,83,0.00,,,0.00,,2013-01-14 09:02:00,
2013-01-14 01:11:00,31.0,26.0,30.47,ESE,114,19.0,27.0,83,0.00,,,0.00,,2013-01-14 09:11:00,
2013-01-14 01:22:00,31.0,26.0,30.47,East,94,13.0,23.0,83,0.00,,,0.00,,2013-01-14 09:22:00,
2013-01-14 01:33:00,31.0,26.0,30.47,ESE,112,16.0,23.0,83,0.00,,,0.00,,2013-01-14 09:33:00,
2013-01-14 01:42:00,31.0,26.0,30.47,ESE,112,16.0,23.0,83,0.00,,,0.00,,2013-01-14 09:42:00,
2013-01-14 01:52:00,31.0,27.0,30.46,East,99,17.0,23.0,84,0.00,,,0.00,,2013-01-14 09:52:00,
2013-01-14 02:02:00,31.0,27.0,30.47,ESE,104,16.0,25.0,84,0.00,,,0.00,,2013-01-14 10:02:00,
2013-01-14 02:11:00,31.0,27.0,30.47,ESE,104,16.0,25.0,84,0.00,,,0.00,,2013-01-14 10:11:00,
2013-01-14 02:22:00,30.0,26.0,30.48,ESE,116,16.0,25.0,84,0.00,,,0.00,,2013-01-14 10:22:00,
2013-01-14 02:32:00,30.0,26.0,30.48,ESE,119,15.0,26.0,84,0.00,,,0.00,,2013-01-14 10:32:00,
2013-01-14 02:42:00,30.0,26.0,30.48,ESE,119,15.0,26.0,84,0.00,,,0.00,,2013-01-14 10:42:00,
2013-01-14 02:52:00,30.0,26.0,30.48,SE,132,14.0,23.0,85,0.00,,,0.00,,2013-01-14 10:52:00,
2013-01-14 03:02:00,30.0,26.0,30.48,ESE,103,14.0,25.0,84,0.00,,,0.00,,2013-01-14 11:02:00,
2013-01-14 03:11:00,30.0,26.0,30.48,ESE,103,14.0,25.0,84,0.00,,,0.00,,2013-01-14 11:11:00,
2013-01-14 03:22:00,30.0,26.0,30.48,SE,125,13.0,26.0,85,0.00,,,0.00,,2013-01-14 11:22:00,
2013-01-14 03:32:00,30.0,26.0,30.47,ESE,102,16.0,25.0,85,0.00,,,0.00,,2013-01-14 11:32:00,
2013-01-14 03:42:00,30.0,26.0,30.47,ESE,102,16.0,25.0,85,0.00,,,0.00,,2013-01-14 11:42:00,
2013-01-14 03:53:00,30.0,26.0,30.47,ESE,109,16.0,26.0,85,0.00,,,0.00,,2013-01-14 11:53:00,
2013-01-14 04:02:00,30.0,26.0,30.48,ESE,117,18.0,25.0,85,0.00,,,0.00,,2013-01-14 12:02:00,
2013-01-14 04:12:00,30.0,26.0,30.48,ESE,117,18.0,25.0,85,0.00,,,0.00,,2013-01-14 12:12:00,
2013-01-14 04:22:00,30.0,26.0,30.47,ESE,121,15.0,26.0,85,0.00,,,0.00,,2013-01-14 12:22:00,
2013-01-14 04:33:00,29.0,25.0,30.47,ESE,112,15.0,26.0,86,0.00,,,0.00,,2013-01-14 12:33:00,
2013-01-14 04:42:00,29.0,25.0,30.47,ESE,112,15.0,26.0,86,0.00,,,0.00,,2013-01-14 12:42:00,
2013-01-14 04:52:00,29.0,25.0,30.47,East,101,17.0,25.0,86,0.00,,,0.00,,2013-01-14 12:52:00,
2013-01-14 05:03:00,29.0,25.0,30.47,ESE,102,15.0,23.0,86,0.00,,,0.00,,2013-01-14 13:03:00,
2013-01-14 05:12:00,29.0,25.0,30.47,ESE,102,15.0,23.0,86,0.00,,,0.00,,2013-01-14 13:12:00,
2013-01-14 05:22:00,29.0,25.0,30.48,East,88,14.0,25.0,86,0.00,,,0.00,,2013-01-14 13:22:00,
2013-01-14 05:33:00,29.0,25.0,30.48,East,99,15.0,25.0,86,0.00,,,0.00,,2013-01-14 13:33:00,
2013-01-14 05:43:00,29.0,25.0,30.48,East,99,15.0,25.0,86,0.00,,,0.00,,2013-01-14 13:43:00,
2013-01-14 05:52:00,29.0,25.0,30.48,East,98,16.0,23.0,86,0.00,,,0.00,,2013-01-14 13:52:00,
2013-01-14 06:02:00,29.0,25.0,30.48,East,100,19.0,30.0,86,0.00,,,0.00,,2013-01-14 14:02:00,
2013-01-14 06:12:00,29.0,25.0,30.48,East,100,19.0,30.0,86,0.00,,,0.00,,2013-01-14 14:12:00,
2013-01-14 06:22:00,29.0,25.0,30.48,ESE,108,20.0,29.0,86,0.00,,,0.00,,2013-01-14 14:22:00,
2013-01-14 06:33:00,29.0,25.0,30.49,East,98,17.0,27.0,85,0.00,,,0.00,,2013-01-14 14:33:00,
2013-01-14 06:42:00,29.0,25.0,30.49,East,98,17.0,27.0,85,0.00,,,0.00,,2013-01-14 14:42:00,
2013-01-14 06:52:00,30.0,26.0,30.49,East,96,13.0,28.0,85,0.00,,,0.00,,2013-01-14 14:52:00,
2013-01-14 07:03:00,30.0,26.0,30.49,ESE,109,18.0,26.0,84,0.00,,,0.00,,2013-01-14 15:03:00,
2013-01-14 07:12:00,30.0,26.0,30.49,ESE,109,18.0,26.0,84,0.00,,,0.00,,2013-01-14 15:12:00,
2013-01-14 07:23:00,30.0,26.0,30.50,ENE,75,17.0,26.0,84,0.00,,,0.00,,2013-01-14 15:23:00,
2013-01-14 07:33:00,30.0,26.0,30.50,East,93,18.0,27.0,84,0.00,,,0.00,,2013-01-14 15:33:00,
2013-01-14 07:42:00,30.0,26.0,30.50,East,93,18.0,27.0,84,0.00,,,0.00,,2013-01-14 15:42:00,
2013-01-14 07:53:00,30.0,26.0,30.51,ESE,102,18.0,32.0,84,0.00,,,0.00,,2013-01-14 15:53:00,
2013-01-14 08:02:00,30.0,26.0,30.51,ESE,106,17.0,26.0,84,0.00,,,0.00,,2013-01-14 16:02:00,
2013-01-14 08:12:00,30.0,26.0,30.51,ESE,106,17.0,26.0,84,0.00,,,0.00,,2013-01-14 16:12:00,
2013-01-14 08:23:00,30.0,25.0,30.50,East,86,19.0,28.0,83,0.00,,,0.00,,2013-01-14 16:23:00,
2013-01-14 08:33:00,30.0,25.0,30.51,East,99,18.0,25.0,83,0.00,,,0.00,,2013-01-14 16:33:00,
2013-01-14 08:42:00,30.0,25.0,30.51,East,99,18.0,25.0,83,0.00,,,0.00,,2013-01-14 16:42:00,
2013-01-14 08:52:00,30.0,25.0,30.52,East,83,19.0,28.0,82,0.00,,,0.00,,2013-01-14 16:52:00,
2013-01-14 09:03:00,30.0,25.0,30.51,ENE,72,18.0,29.0,82,0.00,,,0.00,,2013-01-14 17:03:00,
2013-01-14 09:12:00,30.0,25.0,30.51,ENE,72,18.0,29.0,82,0.00,,,0.00,,2013-01-14 17:12:00,
2013-01-14 09:22:00,31.0,26.0,30.51,ESE,102,17.0,26.0,81,0.00,,,0.00,,2013-01-14 17:22:00,
2013-01-14 09:33:00,31.0,26.0,30.52,ESE,104,19.0,24.0,80,0.00,,,0.00,,2013-01-14 17:33:00,
2013-01-14 09:42:00,31.0,26.0,30.52,ESE,104,19.0,24.0,80,0.00,,,0.00,,2013-01-14 17:42:00,
2013-01-14 09:53:00,31.0,26.0,30.52,East,96,16.0,23.0,80,0.00,,,0.00,,2013-01-14 17:53:00,
2013-01-14 10:02:00,32.0,26.0,30.53,ESE,106,10.0,17.0,79,0.00,,,0.00,,2013-01-14 18:02:00,
2013-01-14 10:12:00,32.0,26.0,30.53,ESE,106,10.0,17.0,79,0.00,,,0.00,,2013-01-14 18:12:00,
2013-01-14 10:22:00,32.0,26.0,30.53,East,98,15.0,21.0,79,0.00,,,0.00,,2013-01-14 18:22:00,
2013-01-14 10:33:00,32.0,27.0,30.54,East,100,15.0,24.0,80,0.00,,,0.00,,2013-01-14 18:33:00,
2013-01-14 10:42:00,32.0,27.0,30.54,East,100,15.0,24.0,80,0.00,,,0.00,,2013-01-14 18:42:00,
2013-01-14 10:52:00,33.0,28.0,30.54,East,94,13.0,25.0,80,0.00,,,0.00,,2013-01-14 18:52:00,
2013-01-14 11:03:00,34.0,28.0,30.54,East,98,11.0,20.0,78,0.00,,,0.00,,2013-01-14 19:03:00,
2013-01-14 11:12:00,34.0,28.0,30.54,East,98,11.0,20.0,78,0.00,,,0.00,,2013-01-14 19:12:00,
2013-01-14 11:22:00,34.0,28.0,30.55,East,90,12.0,22.0,78,0.00,,,0.00,,2013-01-14 19:22:00,
2013-01-14 11:33:00,35.0,29.0,30.55,East,80,10.0,16.0,78,0.00,,,0.00,,2013-01-14 19:33:00,
2013-01-14 11:42:00,35.0,29.0,30.55,East,80,10.0,16.0,78,0.00,,,0.00,,2013-01-14 19:42:00,
2013-01-14 11:53:00,35.0,29.0,30.55,ESE,106,10.0,17.0,78,0.00,,,0.00,,2013-01-14 19:53:00,
2013-01-14 12:03:00,35.0,29.0,30.54,East,92,9.0,19.0,78,0.00,,,0.00,,2013-01-14 20:03:00,
2013-01-14 12:12:00,35.0,29.0,30.54,East,92,9.0,19.0,78,0.00,,,0.00,,2013-01-14 20:12:00,
2013-01-14 12:22:00,36.0,29.0,30.54,ESE,117,12.0,18.0,76,0.00,,,0.00,,2013-01-14 20:22:00,
2013-01-14 12:33:00,37.0,30.0,30.53,ESE,104,11.0,21.0,75,0.00,,,0.00,,2013-01-14 20:33:00,
2013-01-14 12:42:00,37.0,30.0,30.53,ESE,104,11.0,21.0,75,0.00,,,0.00,,2013-01-14 20:42:00,
2013-01-14 12:53:00,37.0,29.0,30.52,East,85,10.0,18.0,74,0.00,,,0.00,,2013-01-14 20:53:00,
2013-01-14 13:02:00,38.0,31.0,30.52,ESE,102,9.0,16.0,75,0.00,,,0.00,,2013-01-14 21:02:00,
2013-01-14 13:12:00,38.0,31.0,30.52,ESE,102,9.0,16.0,75,0.00,,,0.00,,2013-01-14 21:12:00,
2013-01-14 13:22:00,39.0,31.0,30.52,ESE,112,9.0,14.0,74,0.00,,,0.00,,2013-01-14 21:22:00,
2013-01-14 13:32:00,39.0,31.0,30.51,East,101,10.0,14.0,74,0.00,,,0.00,,2013-01-14 21:32:00,
2013-01-14 13:42:00,39.0,31.0,30.51,East,101,10.0,14.0,74,0.00,,,0.00,,2013-01-14 21:42:00,
2013-01-14 13:53:00,40.0,31.0,30.51,SE,127,8.0,12.0,71,0.00,,,0.00,,2013-01-14 21:53:00,
2013-01-14 14:02:00,40.0,31.0,30.52,ESE,102,5.0,10.0,70,0.00,,,0.00,,2013-01-14 22:02:00,
2013-01-14 14:12:00,40.0,31.0,30.52,ESE,102,5.0,10.0,70,0.00,,,0.00,,2013-01-14 22:12:00,
2013-01-14 14:23:00,41.0,32.0,30.52,ESE,105,6.0,12.0,69,0.00,,,0.00,,2013-01-14 22:23:00,
2013-01-14 14:32:00,41.0,32.0,30.52,ESE,123,8.0,11.0,70,0.00,,,0.00,,2013-01-14 22:32:00,
2013-01-14 14:42:00,41.0,32.0,30.52,ESE,123,8.0,11.0,70,0.00,,,0.00,,2013-01-14 22:42:00,
2013-01-14 14:52:00,41.0,32.0,30.53,East,94,6.0,10.0,69,0.00,,,0.00,,2013-01-14 22:52:00,
2013-01-14 15:02:00,41.0,32.0,30.53,East,94,6.0,10.0,69,0.00,,,0.00,,2013-01-14 23:02:00,
2013-01-14 15:12:00,41.0,32.0,30.53,East,94,6.0,10.0,69,0.00,,,0.00,,2013-01-14 23:12:00,
2013-01-14 15:22:00,41.0,32.0,30.53,East,94,6.0,10.0,69,0.00,,,0.00,,2013-01-14 23:22:00,
2013-01-14 15:32:00,41.0,33.0,30.53,ESE,110,11.0,15.0,72,0.00,,,0.00,,2013-01-14 23:32:00,
2013-01-14 15:43:00,41.0,33.0,30.53,ESE,110,11.0,15.0,72,0.00,,,0.00,,2013-01-14 23:43:00,
2013-01-14 15:53:00,41.0,33.0,30.54,ESE,120,9.0,14.0,72,0.00,,,0.00,,2013-01-14 23:53:00,
2013-01-14 16:02:00,41.0,33.0,30.54,ESE,114,9.0,14.0,73,0.00,,,0.00,,2013-01-15 00:02:00,
2013-01-14 16:12:00,41.0,33.0,30.54,ESE,114,9.0,14.0,73,0.00,,,0.00,,2013-01-15 00:12:00,
2013-01-14 16:22:00,41.0,33.0,30.54,ESE,107,10.0,15.0,73,0.00,,,0.00,,2013-01-15 00:22:00,
2013-01-14 16:32:00,41.0,33.0,30.54,SE,132,7.0,13.0,73,0.00,,,0.00,,2013-01-15 00:32:00,
2013-01-14 16:42:00,41.0,33.0,30.54,SE,132,7.0,13.0,73,0.00,,,0.00,,2013-01-15 00:42:00,
2013-01-14 16:53:00,41.0,33.0,30.54,ESE,109,7.0,12.0,73,0.00,,,0.00,,2013-01-15 00:53:00,
2013-01-14 17:02:00,41.0,33.0,30.53,SSE,158,2.0,8.0,74,0.00,,,0.00,,2013-01-15 01:02:00,
2013-01-14 17:12:00,41.0,33.0,30.53,SSE,158,2.0,8.0,74,0.00,,,0.00,,2013-01-15 01:12:00,
2013-01-14 17:22:00,41.0,33.0,30.53,SSE,150,5.0,9.0,74,0.00,,,0.00,,2013-01-15 01:22:00,
2013-01-14 17:32:00,40.0,33.0,30.53,East,98,5.0,11.0,75,0.00,,,0.00,,2013-01-15 01:32:00,
2013-01-14 17:42:00,40.0,33.0,30.53,East,98,5.0,11.0,75,0.00,,,0.00,,2013-01-15 01:42:00,
2013-01-14 17:52:00,40.0,33.0,30.53,ESE,106,7.0,12.0,75,0.00,,,0.00,,2013-01-15 01:52:00,
2013-01-14 18:01:00,40.0,33.0,30.53,East,99,8.0,13.0,76,0.00,,,0.00,,2013-01-15 02:01:00,
2013-01-14 18:11:00,40.0,33.0,30.53,East,99,8.0,13.0,76,0.00,,,0.00,,2013-01-15 02:11:00,
2013-01-14 18:22:00,40.0,34.0,30.53,East,88,8.0,14.0,78,0.00,,,0.00,,2013-01-15 02:22:00,
2013-01-14 18:32:00,40.0,34.0,30.54,SE,129,10.0,15.0,79,0.00,,,0.00,,2013-01-15 02:32:00,
2013-01-14 18:42:00,40.0,34.0,30.54,SE,129,10.0,15.0,79,0.00,,,0.00,,2013-01-15 02:42:00,
2013-01-14 18:53:00,39.0,33.0,30.54,SE,125,11.0,15.0,80,0.00,,,0.00,,2013-01-15 02:53:00,
2013-01-14 19:02:00,39.0,33.0,30.54,ESE,120,9.0,17.0,80,0.00,,,0.00,,2013-01-15 03:02:00,
2013-01-14 19:12:00,39.0,33.0,30.54,ESE,120,9.0,17.0,80,0.00,,,0.00,,2013-01-15 03:12:00,
2013-01-14 19:22:00,39.0,34.0,30.54,ESE,109,11.0,15.0,81,0.00,,,0.00,,2013-01-15 03:22:00,
2013-01-14 19:32:00,38.0,34.0,30.54,ESE,108,10.0,18.0,84,0.00,,,0.00,,2013-01-15 03:32:00,
2013-01-14 19:42:00,38.0,34.0,30.54,ESE,108,10.0,18.0,84,0.00,,,0.00,,2013-01-15 03:42:00,
2013-01-14 19:52:00,38.0,34.0,30.54,East,99,11.0,17.0,86,0.00,,,0.00,,2013-01-15 03:52:00,
2013-01-14 20:02:00,38.0,35.0,30.54,ESE,117,11.0,21.0,88,0.00,,,0.00,,2013-01-15 04:02:00,
2013-01-14 20:12:00,38.0,35.0,30.54,ESE,117,11.0,21.0,88,0.00,,,0.00,,2013-01-15 04:12:00,
2013-01-14 20:22:00,38.0,35.0,30.54,East,96,9.0,15.0,88,0.00,,,0.00,,2013-01-15 04:22:00,
2013-01-14 20:32:00,38.0,35.0,30.53,ESE,106,10.0,15.0,89,0.00,,,0.00,,2013-01-15 04:32:00,
2013-01-14 20:42:00,38.0,35.0,30.53,ESE,106,10.0,15.0,89,0.00,,,0.00,,2013-01-15 04:42:00,
2013-01-14 20:52:00,38.0,35.0,30.53,ESE,106,10.0,15.0,89,0.00,,,0.00,,2013-01-15 04:52:00,
2013-01-14 21:03:00,38.0,35.0,30.54,ESE,106,10.0,20.0,89,0.00,,,0.00,,2013-01-15 05:03:00,
2013-01-14 21:12:00,38.0,35.0,30.54,ESE,106,10.0,20.0,89,0.00,,,0.00,,2013-01-15 05:12:00,
2013-01-14 21:22:00,37.0,34.0,30.54,ESE,105,12.0,20.0,90,0.00,,,0.00,,2013-01-15 05:22:00,
2013-01-14 21:33:00,37.0,34.0,30.54,ESE,105,12.0,20.0,90,0.00,,,0.00,,2013-01-15 05:33:00,
2013-01-14 21:42:00,37.0,34.0,30.54,ESE,105,12.0,20.0,90,0.00,,,0.00,,2013-01-15 05:42:00,
2013-01-14 21:52:00,37.0,34.0,30.54,East,79,14.0,20.0,90,0.00,,,0.00,,2013-01-15 05:52:00,
2013-01-14 22:02:00,37.0,34.0,30.55,ESE,104,11.0,21.0,90,0.00,,,0.00,,2013-01-15 06:02:00,
2013-01-14 22:12:00,37.0,34.0,30.55,ESE,104,11.0,21.0,90,0.00,,,0.00,,2013-01-15 06:12:00,
2013-01-14 22:22:00,37.0,34.0,30.54,East,90,14.0,21.0,90,0.00,,,0.00,,2013-01-15 06:22:00,
2013-01-14 22:32:00,37.0,34.0,30.54,East,88,13.0,18.0,90,0.00,,,0.00,,2013-01-15 06:32:00,
2013-01-14 22:42:00,37.0,34.0,30.54,East,88,13.0,18.0,90,0.00,,,0.00,,2013-01-15 06:42:00,
2013-01-14 22:52:00,37.0,34.0,30.54,ESE,111,14.0,19.0,90,0.00,,,0.00,,2013-01-15 06:52:00,
2013-01-14 23:02:00,37.0,34.0,30.54,ESE,112,13.0,21.0,90,0.00,,,0.00,,2013-01-15 07:02:00,
2013-01-14 23:12:00,37.0,34.0,30.54,ESE,112,13.0,21.0,90,0.00,,,0.00,,2013-01-15 07:12:00,
2013-01-14 23:22:00,37.0,34.0,30.54,East,98,14.0,22.0,89,0.00,,,0.00,,2013-01-15 07:22:00,
2013-01-14 23:32:00,37.0,34.0,30.54,East,98,10.0,20.0,89,0.00,,,0.00,,2013-01-15 07:32:00,
2013-01-14 23:42:00,37.0,34.0,30.54,East,98,10.0,20.0,89,0.00,,,0.00,,2013-01-15 07:42:00,
2013-01-14 23:52:00,37.0,34.0,30.54,ESE,107,12.0,19.0,89,0.00,,,0.00,,2013-01-15 07:52:00,